This demonstration page uses our WeatherBlox Daily Observations layout. Learn more.

Left ArrowRight Arrow

Hourly Observations for April 2, 2015

Temp ( °F °C ) Dew Point ( °F °C ) Humidity (%) Winds ( mph kmh ) Pressure ( in mb ) Visibility ( mi km ) Precip ( " mm )
12:16 am 00:16 Clear 52 11 25 -4 35 35 SSE 7 11 30.03 1017 10 16.0934 N/A
12:36 am 00:36 Clear 52 11 23 -5 32 32 S 8 13 30.03 1017 10 16.0934 N/A
12:55 am 00:55 Clear 52 11 23 -5 32 32 S 10 17 30.03 1017 10 16.0934 N/A
1:16 am 01:16 Clear 52 11 21 -6 30 30 SSE 9 15 30 1016 10 16.0934 N/A
1:36 am 01:36 Clear 52 11 19 -7 28 28 SSE 10 17 30 1016 10 16.0934 N/A
1:55 am 01:55 Clear 52 11 19 -7 28 28 SSE 9 15 29.94 1014 10 16.0934 N/A
2:16 am 02:16 Clear 52 11 19 -7 28 28 S 9 15 29.94 1014 10 16.0934 N/A
2:36 am 02:36 Partly Cloudy 52 11 18 -8 26 26 S 9 15 29.94 1014 10 16.0934 N/A
2:55 am 02:55 Clear 52 11 18 -8 26 26 S 9 15 29.94 1014 10 16.0934 N/A
3:16 am 03:16 Clear 52 11 18 -8 26 26 SSE 9 15 29.91 1013 10 16.0934 N/A
3:36 am 03:36 Clear 52 11 16 -9 24 24 SSE 10 17 29.91 1013 10 16.0934 N/A
3:55 am 03:55 Clear 52 11 16 -9 24 24 SSE 9 15 29.91 1013 10 16.0934 N/A
4:16 am 04:16 Clear 52 11 14 -10 22 22 S 8 13 29.91 1013 10 16.0934 N/A
4:36 am 04:36 Clear 52 11 16 -9 24 24 S 9 15 29.91 1013 10 16.0934 N/A
4:55 am 04:55 Clear 52 11 18 -8 26 26 SSE 9 15 29.91 1013 10 16.0934 N/A
5:16 am 05:16 Clear 52 11 18 -8 26 26 SSE 9 15 29.91 1013 10 16.0934 N/A
5:36 am 05:36 Partly Cloudy 52 11 18 -8 26 26 SSE 10 17 29.88 1012 10 16.0934 N/A
5:56 am 05:56 Clear 52 11 18 -8 26 26 SSE 10 17 29.88 1012 10 16.0934 N/A
6:16 am 06:16 Partly Cloudy 54 12 16 -9 22 22 SSE 9 15 29.88 1012 10 16.0934 N/A
6:36 am 06:36 Mostly Cloudy 54 12 14 -10 21 21 SSE 10 17 29.88 1012 10 16.0934 N/A
6:56 am 06:56 Mostly Cloudy 52 11 21 -6 30 30 S 9 15 29.88 1012 10 16.0934 N/A
7:16 am 07:16 Partly Cloudy 52 11 23 -5 32 32 SSE 8 13 29.88 1012 10 16.0934 N/A
7:35 am 07:35 Sunny 52 11 21 -6 30 30 S 9 15 29.88 1012 10 16.0934 N/A
7:56 am 07:56 Sunny 52 11 23 -5 32 32 SSE 12 19 29.88 1012 10 16.0934 N/A
8:16 am 08:16 Sunny 54 12 21 -6 28 28 S 10 17 29.88 1012 10 16.0934 N/A
8:35 am 08:35 Sunny 54 12 23 -5 30 30 S 9 15 29.85 1011 10 16.0934 N/A
8:56 am 08:56 Sunny 54 12 23 -5 30 30 S 8 13 29.85 1011 10 16.0934 N/A
9:16 am 09:16 Partly Cloudy 55 13 23 -5 28 28 S 9 15 29.83 1010 10 16.0934 N/A
9:35 am 09:35 Sunny 55 13 25 -4 31 31 S 12 19 29.83 1010 10 16.0934 N/A
9:56 am 09:56 Sunny 55 13 27 -3 33 33 S 12 19 29.83 1010 10 16.0934 N/A
10:16 am 10:16 Sunny 59 15 27 -3 29 29 S 16 26 29.83 1010 10 16.0934 N/A
10:35 am 10:35 Sunny 61 16 28 -2 29 29 S 14 22 29.83 1010 10 16.0934 N/A
10:56 am 10:56 Partly Cloudy 63 17 32 0 32 32 SSW 20 31 29.83 1010 10 16.0934 N/A
11:16 am 11:16 Mostly Cloudy 57 14 39 4 51 51 S 12 19 29.83 1010 10 16.0934 N/A
11:35 am 11:35 Mostly Cloudy 61 16 37 3 42 42 S 14 22 29.83 1010 10 16.0934 N/A
11:56 am 11:56 Mostly Cloudy 61 16 39 4 45 45 SSW 13 20 29.83 1010 10 16.0934 N/A
12:16 pm 12:16 Mostly Cloudy 59 15 45 7 59 59 SSW 17 28 29.83 1010 5 8.0467 N/A
12:35 pm 12:35 Cloudy 59 15 57 14 94 94 SSW 9 15 29.83 1010 5 8.0467 N/A
12:56 pm 12:56 Cloudy 59 15 59 15 100 100 SSW 13 20 29.8 1009 7 11.26538 N/A
1:16 pm 13:16 Cloudy 61 16 57 14 88 88 SSW 12 19 29.8 1009 10 16.0934 N/A
1:36 pm 13:36 Cloudy 61 16 59 15 94 94 SSW 13 20 29.8 1009 7 11.26538 N/A
1:56 pm 13:56 Cloudy 61 16 61 16 100 100 SW 10 17 29.8 1009 3 4.82802 N/A
2:15 pm 14:15 Cloudy 61 16 N/A N/A SSW 16 26 29.8 1009 4 6.43736 N/A
2:36 pm 14:36 Mostly Cloudy 61 16 N/A N/A SW 18 30 29.8 1009 10 16.0934 N/A
2:56 pm 14:56 Mostly Cloudy 63 17 N/A N/A SW 17 28 29.77 1008 10 16.0934 N/A
3:15 pm 15:15 Partly Cloudy 64 18 57 14 78 78 SSW 20 31 29.77 1008 10 16.0934 N/A
3:36 pm 15:36 Sunny 66 19 54 12 64 64 SSW 24 39 29.74 1007 10 16.0934 N/A
3:56 pm 15:56 Sunny 68 20 54 12 60 60 SW 18 30 29.74 1007 10 16.0934 N/A
4:15 pm 16:15 Partly Cloudy 68 20 55 13 64 64 SSW 17 28 29.74 1007 10 16.0934 N/A
4:36 pm 16:36 Partly Cloudy 68 20 54 12 60 60 SW 18 30 29.74 1007 10 16.0934 N/A
4:56 pm 16:56 Sunny 68 20 52 11 56 56 WSW 15 24 29.74 1007 10 16.0934 N/A
5:15 pm 17:15 Sunny 70 21 50 10 50 50 WSW 13 20 29.74 1007 10 16.0934 N/A
5:36 pm 17:36 Partly Cloudy 68 20 48 9 49 49 WSW 15 24 29.74 1007 10 16.0934 N/A
5:55 pm 17:55 Partly Cloudy 70 21 48 9 46 46 SW 18 30 29.74 1007 10 16.0934 N/A
6:16 pm 18:16 Partly Cloudy 70 21 48 9 46 46 SW 15 24 29.74 1007 10 16.0934 N/A
6:36 pm 18:36 Partly Cloudy 68 20 50 10 53 53 SW 17 28 29.74 1007 10 16.0934 N/A
6:55 pm 18:55 Mostly Cloudy 66 19 50 10 56 56 SW 9 15 29.74 1007 10 16.0934 N/A
7:16 pm 19:16 Cloudy 63 17 59 15 88 88 NW 13 20 29.8 1009 0.25 0.402335 N/A
7:36 pm 19:36 Cloudy 61 16 N/A N/A SSW 7 11 29.83 1010 10 16.0934 N/A
7:55 pm 19:55 Mostly Cloudy 61 16 N/A N/A WSW 5 7 29.83 1010 10 16.0934 N/A
8:16 pm 20:16 Partly Cloudy 61 16 N/A N/A SW 3 6 29.83 1010 10 16.0934 N/A
8:36 pm 20:36 Mostly Cloudy 61 16 N/A N/A W 5 7 29.83 1010 10 16.0934 N/A
8:55 pm 20:55 Partly Cloudy 61 16 N/A N/A WNW 5 7 29.83 1010 10 16.0934 N/A
9:16 pm 21:16 Partly Cloudy 59 15 N/A N/A WNW 3 6 29.83 1010 10 16.0934 N/A
9:36 pm 21:36 Mostly Cloudy 59 15 N/A N/A WNW 6 9 29.85 1011 10 16.0934 N/A
9:55 pm 21:55 Partly Cloudy 59 15 N/A N/A WNW 6 9 29.88 1012 10 16.0934 N/A
10:16 pm 22:16 Partly Cloudy 59 15 N/A N/A WNW 3 6 29.88 1012 10 16.0934 N/A
10:36 pm 22:36 Partly Cloudy 57 14 N/A N/A Calm 29.88 1012 10 16.0934 N/A
10:55 pm 22:55 Mostly Cloudy 57 14 N/A N/A Calm 29.88 1012 10 16.0934 N/A
11:16 pm 23:16 Mostly Cloudy 57 14 N/A N/A Calm 29.88 1012 10 16.0934 N/A
11:36 pm 23:36 Cloudy 55 13 N/A N/A NE 3 6 29.85 1011 7 11.26538 N/A
11:55 pm 23:55 Cloudy 57 14 N/A N/A Calm 29.88 1012 10 16.0934 N/A

Powered by AerisWeather